Weather History for KFWA - September, 2012

Change the Weather History Date:

Friday, September 21, 2012

  Actual Average Record
Temperature  
Mean Temperature 58 °F 62 °F  
Max Temperature 71 °F 74 °F 93 °F (1908)
Min Temperature 45 °F 50 °F 32 °F (1897)
Degree Days  
Heating Degree Days 7 5  
Month to date heating degree days 54 48  
Since 1 July heating degree days 59 60  
Cooling Degree Days 0 2  
Month to date cooling degree days 78 71  
Year to date cooling degree days 1105 788  
Growing Degree Days 8 (Base 50)    
Moisture  
Dew Point 44 °F    
Average Humidity 66    
Maximum Humidity 100    
Minimum Humidity 31    
Precipitation  
Precipitation 0.54 in 0.10 in 2.00 in (1992)
Month to date precipitation 3.40 1.97  
Year to date precipitation 22.26 28.81  
Snow  
Snow 0.00 in 0.00 in 0.00 in (2002)
Month to date snowfall 0.0 0.0  
Since 1 July snowfall 0.0 0.0  
Since 1 September snowfall 0.0  
Snow Depth 0.00 in    
Sea Level Pressure  
Sea Level Pressure 29.91 in    
Wind  
Wind Speed 7 mph (SW)    
Max Wind Speed 17 mph    
Max Gust Speed 22 mph    
Visibility 10 miles    
Events Rain    
T = Trace of Precipitation, MM = Missing Value Source: NWS Daily Summary

Daily Weather History Graph

Daily Weather History Graph

Search for Another Location

Airport or City:

Trip Planner

Search our weather history database for the weather conditions in past years. The results will help you decide how hot, cold, wet, or windy it might be!

Date:

Astronomy

Sep. 21, 2012 Rise Set
Actual Time 7:27 AM EDT 7:38 PM EDT
Civil Twilight 7:00 AM EDT 8:06 PM EDT
Nautical Twilight 6:28 AM EDT 8:38 PM EDT
Astronomical Twilight 5:55 AM EDT 9:10 PM EDT
Moon 1:51 PM EDT (9/21) 11:36 PM EDT (9/21)
Length of Visible Light 13h 05m
Length of Day
12h 11m
Waxing Crescent, 37% of the Moon is Illuminated
Sep 21
Waxing Crescent
Sep 22
First Quarter
Sep 29
Full
Oct 8
Last Quarter
Oct 15
New

Hourly Weather History & Observations

Time (EDT) Temp. Windchill Dew Point Humidity Pressure Visibility Wind Dir Wind Speed Gust Speed Precip Events Conditions
12:54 AM 48.9 °F - 43.0 °F 80% 29.94 in 10.0 mi WSW 6.9 mph - N/A   Scattered Clouds
1:54 AM 50.0 °F - 42.1 °F 74% 29.95 in 10.0 mi WSW 5.8 mph - N/A   Scattered Clouds
2:54 AM 48.0 °F - 42.1 °F 80% 29.95 in 10.0 mi WSW 5.8 mph - N/A   Partly Cloudy
3:54 AM 46.9 °F - 41.0 °F 80% 29.96 in 10.0 mi West 8.1 mph - N/A   Partly Cloudy
4:54 AM 48.0 °F - 41.0 °F 77% 29.96 in 10.0 mi WSW 6.9 mph - N/A   Scattered Clouds
5:54 AM 46.9 °F - 41.0 °F 80% 29.96 in 10.0 mi WSW 5.8 mph - N/A   Mostly Cloudy
6:54 AM 46.0 °F 43.1 °F 41.0 °F 83% 29.96 in 10.0 mi WSW 5.8 mph - N/A   Mostly Cloudy
7:54 AM 46.0 °F - 39.9 °F 79% 29.98 in 10.0 mi Calm Calm - N/A   Scattered Clouds
8:54 AM 48.9 °F - 43.0 °F 80% 29.98 in 10.0 mi SSW 3.5 mph - N/A   Scattered Clouds
9:54 AM 57.0 °F - 44.1 °F 62% 29.98 in 10.0 mi SSW 4.6 mph - N/A   Mostly Cloudy
10:54 AM 62.1 °F - 42.1 °F 48% 29.98 in 10.0 mi SW 9.2 mph - N/A   Mostly Cloudy
11:54 AM 64.9 °F - 41.0 °F 42% 29.97 in 10.0 mi SW 8.1 mph - N/A   Mostly Cloudy
12:54 PM 68.0 °F - 39.9 °F 36% 29.95 in 10.0 mi SW 10.4 mph - N/A   Mostly Cloudy
1:54 PM 69.1 °F - 37.9 °F 32% 29.92 in 10.0 mi WSW 13.8 mph - N/A   Overcast
2:54 PM 70.0 °F - 39.0 °F 32% 29.88 in 10.0 mi SSW 13.8 mph - N/A   Mostly Cloudy
3:54 PM 66.0 °F - 42.1 °F 42% 29.88 in 10.0 mi SSW 9.2 mph - 0.00 in Rain Light Rain
4:54 PM 64.0 °F - 39.9 °F 41% 29.88 in 10.0 mi SW 9.2 mph - 0.00 in   Overcast
5:54 PM 61.0 °F - 48.9 °F 64% 29.86 in 10.0 mi ESE 3.5 mph - 0.02 in Rain Light Rain
6:54 PM 55.9 °F - 51.1 °F 84% 29.87 in 4.0 mi SE 6.9 mph - 0.02 in Rain Rain
7:54 PM 53.1 °F - 51.1 °F 93% 29.87 in 4.0 mi SE 3.5 mph - 0.26 in Rain Rain
8:54 PM 52.0 °F - 51.1 °F 97% 29.81 in 10.0 mi East 8.1 mph - 0.24 in Rain Light Rain
9:54 PM 51.1 °F - 50.0 °F 96% 29.79 in 10.0 mi NNE 6.9 mph - 0.00 in   Mostly Cloudy
10:26 PM 51.8 °F - 50.0 °F 94% 29.80 in 10.0 mi NNE 5.8 mph - N/A   Overcast
10:54 PM 51.1 °F - 50.0 °F 96% 29.81 in 10.0 mi North 6.9 mph - N/A   Overcast
11:54 PM 51.1 °F - 50.0 °F 96% 29.79 in 10.0 mi NNE 5.8 mph - 0.00 in   Overcast